Location: Nians�bougou
(13.2321°N, 4.9818°W)
Time: 08:19:32
(UTC+00:00)

EXPRESS MD2 - Pass Details

Date: 18 February 2020
Orbit: 261 x 4038 km, 49.9° (Epoch: 28 March)

Event Time Altitude Azimuth Distance (km) Brightness Sun altitude
Exits shadow 05:44:51 34° 336° (NNW) 450 2.6 -14.4°
Maximum altitude 05:45:34 70° 51° (NE) 277 1.9 -14.3°
Drops below altitude 10° 05:47:43 10° 136° (SE) 1,080 5.7 -13.7°
Sets 05:49:43 0° 138° (SE) 2,030 7.1 -13.3°
